2024/02/18 00:00:00,33.6, 5.0
2024/02/18 00:10:00,33.6, 4.8
2024/02/18 00:20:00,33.6, 5.6
2024/02/18 00:30:00,33.5, 5.2
2024/02/18 00:40:00,33.5, 5.9
2024/02/18 00:50:00,33.5, 6.1
2024/02/18 01:00:00,33.4, 5.5
2024/02/18 01:10:00,33.5, 6.0
2024/02/18 01:20:00,33.5, 6.1
2024/02/18 01:30:00,33.5, 6.6
2024/02/18 01:40:00,33.4, 6.3
2024/02/18 01:50:00,33.4, 6.2
2024/02/18 02:00:00,33.4, 6.2
2024/02/18 02:10:00,33.4, 6.4
2024/02/18 02:20:00,33.4, 6.3
2024/02/18 02:30:00,33.4, 6.5
2024/02/18 02:40:00,33.4, 6.5
2024/02/18 02:50:00,33.4, 6.5
2024/02/18 03:00:00,33.4, 6.5
2024/02/18 03:10:00,33.4, 6.2
2024/02/18 03:20:00,33.3, 5.3
2024/02/18 03:30:00,33.3, 4.9
2024/02/18 03:40:00,33.2, 5.0
2024/02/18 03:50:00,33.2, 5.8
2024/02/18 04:00:00,33.1, 4.7
2024/02/18 04:10:00,33.2, 4.6
2024/02/18 04:20:00,33.1, 4.7
2024/02/18 04:30:00,33.0, 4.9
2024/02/18 04:40:00,33.1, 5.1
2024/02/18 04:50:00,33.0, 4.5
2024/02/18 05:00:00,32.9, 4.6
2024/02/18 05:10:00,32.9, 5.9
2024/02/18 05:20:00,32.9, 6.5
2024/02/18 05:30:00,32.8, 6.5
2024/02/18 05:40:00,32.7, 6.7
2024/02/18 05:50:00,32.8, 6.8
2024/02/18 06:00:00,32.7, 6.8
2024/02/18 06:10:00,32.5, 6.8
2024/02/18 06:20:00,32.5, 6.7
2024/02/18 06:30:00,32.5, 6.4
2024/02/18 06:40:00,32.3, 6.5
2024/02/18 06:50:00,32.2, 6.3
2024/02/18 07:00:00,32.1, 6.3
2024/02/18 07:10:00,32.0, 6.6
2024/02/18 07:20:00,32.0, 6.4
2024/02/18 07:30:00,32.0, 6.5
2024/02/18 07:40:00,32.0, 6.9
2024/02/18 07:50:00,31.9, 7.4
2024/02/18 08:00:00,31.7, 7.6
2024/02/18 08:10:00,31.6, 7.6
2024/02/18 08:20:00,31.7, 7.9
2024/02/18 08:30:00,31.7, 7.9
2024/02/18 08:40:00,31.6, 7.8
2024/02/18 08:50:00,31.4, 8.3
2024/02/18 09:00:00,31.4, 8.6
2024/02/18 09:10:00,31.6, 8.6
2024/02/18 09:20:00,31.7, 8.9
2024/02/18 09:30:00,31.7, 9.4
2024/02/18 09:40:00,31.9, 9.5
2024/02/18 09:50:00,31.9,10.0
2024/02/18 10:00:00,32.2,10.3
2024/02/18 10:10:00,32.1,10.6
2024/02/18 10:20:00,32.1,12.0
2024/02/18 10:30:00,32.3,12.1
2024/02/18 10:40:00,31.8,11.3
2024/02/18 10:50:00,31.5,11.0
2024/02/18 11:00:00,31.3,11.2
2024/02/18 11:10:00,31.3,11.8
2024/02/18 11:20:00,30.9,11.9
2024/02/18 11:30:00,30.7,11.1
2024/02/18 11:40:00,30.7,11.6
2024/02/18 11:50:00,30.5,10.9
2024/02/18 12:00:00,30.4,10.6
2024/02/18 12:10:00,30.4,10.9
2024/02/18 12:20:00,29.9,10.5
2024/02/18 12:30:00,30.0,10.4
2024/02/18 12:40:00,30.0,10.5
2024/02/18 12:50:00,30.0,10.9
2024/02/18 13:00:00,29.7,10.6
2024/02/18 13:10:00,29.3,10.2
2024/02/18 13:20:00,29.4,10.7
2024/02/18 13:30:00,29.4,10.8
2024/02/18 13:40:00,29.2,11.4
2024/02/18 13:50:00,29.2,12.0
2024/02/18 14:00:00,29.0,11.9
2024/02/18 14:10:00,28.8,11.8
2024/02/18 14:20:00,28.3,11.7
2024/02/18 14:30:00,28.2,11.4
2024/02/18 14:40:00,28.1,11.6
2024/02/18 14:50:00,27.8,11.1
2024/02/18 15:00:00,27.6,10.7
2024/02/18 15:10:00,27.8,12.6
2024/02/18 15:20:00,27.6,11.5
2024/02/18 15:30:00,27.3,12.7
2024/02/18 15:40:00,27.0,11.9
2024/02/18 15:50:00,27.4,15.3
2024/02/18 16:00:00,26.9,16.0
2024/02/18 16:10:00,26.8,14.1
2024/02/18 16:20:00,26.4,14.4
2024/02/18 16:30:00,26.1,13.7
2024/02/18 16:40:00,25.8,12.1
2024/02/18 16:50:00,25.5,11.6
2024/02/18 17:00:00,25.5,10.9
2024/02/18 17:10:00,25.2,10.3
2024/02/18 17:20:00,25.0,10.0
2024/02/18 17:30:00,24.9, 9.9
2024/02/18 17:40:00,24.8, 9.4
2024/02/18 17:50:00,24.7, 9.0
2024/02/18 18:00:00,24.7, 8.8
2024/02/18 18:10:00,24.4, 8.7
2024/02/18 18:20:00,24.1, 8.6
2024/02/18 18:30:00,24.0, 8.6
2024/02/18 18:40:00,24.0, 8.8
2024/02/18 18:50:00,23.8, 9.0
2024/02/18 19:00:00,23.7, 8.7
2024/02/18 19:10:00,23.8, 8.7
2024/02/18 19:20:00,23.8, 8.9
2024/02/18 19:30:00,23.8, 8.6
2024/02/18 19:40:00,23.6, 8.7
2024/02/18 19:50:00,23.5, 8.6
2024/02/18 20:00:00,23.4, 8.7
2024/02/18 20:10:00,23.3, 8.9
2024/02/18 20:20:00,23.2, 8.8
2024/02/18 20:30:00,23.0, 8.6
2024/02/18 20:40:00,22.9, 8.9
2024/02/18 20:50:00,22.8, 8.7
2024/02/18 21:00:00,22.6, 8.8
2024/02/18 21:10:00,22.5, 8.6
2024/02/18 21:20:00,22.4, 8.5
2024/02/18 21:30:00,22.4, 8.6
2024/02/18 21:40:00,22.4, 8.6
2024/02/18 21:50:00,22.2, 8.5
2024/02/18 22:00:00,22.1, 8.3
2024/02/18 22:10:00,22.0, 8.3
2024/02/18 22:20:00,21.8, 8.3
2024/02/18 22:30:00,21.7, 8.1
2024/02/18 22:40:00,21.6, 8.1
2024/02/18 22:50:00,21.5, 8.2
2024/02/18 23:00:00,21.4, 8.3
2024/02/18 23:10:00,21.4, 8.3
2024/02/18 23:20:00,21.3, 8.1
2024/02/18 23:30:00,21.1, 8.4
2024/02/18 23:40:00,20.9, 8.6
2024/02/18 23:50:00,20.8, 8.0
